TimeAKDT,TemperatureF,Dew PointF,Humidity,Sea Level PressureIn,VisibilityMPH,Wind Direction,Wind SpeedMPH,Gust SpeedMPH,PrecipitationIn,Events,Conditions,WindDirDegrees,DateUTC
12:13 AM,30.2,28.4,93,30.73,10.0,South,4.6,-,N/A,,Overcast,180,2012-10-24 08:13:00
12:56 AM,30.0,28.0,92,30.74,10.0,SSE,4.6,-,N/A,,Overcast,160,2012-10-24 08:56:00
1:56 AM,30.0,28.0,92,30.75,10.0,SE,5.8,-,N/A,,Overcast,140,2012-10-24 09:56:00
2:56 AM,29.1,27.1,92,30.74,10.0,SSE,6.9,-,N/A,,Overcast,150,2012-10-24 10:56:00
3:56 AM,28.0,25.2,89,30.74,10.0,SE,8.1,-,N/A,,Mostly Cloudy,140,2012-10-24 11:56:00
4:22 AM,26.6,23.0,86,30.71,10.0,ESE,8.1,-,N/A,,Scattered Clouds,120,2012-10-24 12:22:00
4:56 AM,24.1,22.1,92,30.73,10.0,Calm,Calm,-,N/A,,Clear,0,2012-10-24 12:56:00
5:56 AM,23.0,21.0,92,30.70,10.0,ESE,9.2,-,N/A,,Clear,110,2012-10-24 13:56:00
6:56 AM,21.0,19.0,92,30.70,10.0,East,9.2,-,N/A,,Clear,100,2012-10-24 14:56:00
7:56 AM,20.1,18.1,92,30.68,10.0,East,6.9,-,N/A,,Clear,90,2012-10-24 15:56:00
8:56 AM,20.1,17.1,88,30.67,10.0,SE,6.9,-,N/A,,Clear,130,2012-10-24 16:56:00
9:56 AM,19.0,16.2,89,30.66,10.0,Calm,Calm,-,N/A,,Clear,0,2012-10-24 17:56:00
10:56 AM,20.1,17.1,88,30.65,10.0,SE,6.9,-,N/A,,Clear,140,2012-10-24 18:56:00
11:56 AM,24.1,20.1,85,30.66,10.0,SSE,6.9,-,N/A,,Clear,160,2012-10-24 19:56:00
12:56 PM,23.0,19.0,85,30.64,10.0,SSE,8.1,-,N/A,,Clear,150,2012-10-24 20:56:00
1:56 PM,25.2,21.0,84,30.61,10.0,SSE,11.5,-,N/A,,Clear,150,2012-10-24 21:56:00
2:56 PM,26.1,21.0,81,30.63,10.0,SSE,8.1,-,N/A,,Clear,160,2012-10-24 22:56:00
3:56 PM,26.1,22.1,85,30.58,10.0,SSE,10.4,-,N/A,,Clear,150,2012-10-24 23:56:00
4:56 PM,27.1,22.1,81,30.57,10.0,SSE,11.5,-,N/A,,Clear,160,2012-10-25 00:56:00
5:56 PM,28.0,23.0,81,30.56,10.0,South,11.5,-,N/A,,Clear,170,2012-10-25 01:56:00
6:56 PM,29.1,23.0,78,30.53,10.0,SSE,13.8,-,N/A,,Clear,160,2012-10-25 02:56:00
7:56 PM,29.1,24.1,81,30.54,10.0,South,9.2,-,N/A,,Clear,180,2012-10-25 03:56:00
9:56 PM,32.0,25.2,76,30.50,10.0,South,18.4,-,N/A,,Clear,190,2012-10-25 05:56:00
10:56 PM,31.1,25.2,79,30.49,10.0,South,17.3,-,N/A,,Clear,180,2012-10-25 06:56:00
11:56 PM,31.1,25.2,79,30.49,10.0,SSW,11.5,-,N/A,,Clear,200,2012-10-25 07:56:00